TimePDT,TemperatureF,Dew PointF,Humidity,Sea Level PressureIn,VisibilityMPH,Wind Direction,Wind SpeedMPH,Gust SpeedMPH,PrecipitationIn,Events,Conditions,WindDirDegrees,DateUTC
12:15 AM,50.0,19.4,30,30.14,10.0,East,8.1,-,N/A,,Clear,100,2013-10-16 07:15:00
12:35 AM,50.0,19.4,30,30.14,10.0,East,9.2,-,N/A,,Clear,100,2013-10-16 07:35:00
12:55 AM,50.0,19.4,30,30.14,10.0,East,9.2,-,N/A,,Clear,100,2013-10-16 07:55:00
1:15 AM,50.0,19.4,30,30.15,10.0,East,9.2,-,N/A,,Clear,100,2013-10-16 08:15:00
1:35 AM,50.0,17.6,28,30.15,10.0,ESE,9.2,-,N/A,,Clear,110,2013-10-16 08:35:00
1:55 AM,50.0,17.6,28,30.16,10.0,ESE,9.2,-,N/A,,Clear,110,2013-10-16 08:55:00
2:15 AM,48.2,17.6,30,30.16,10.0,ESE,9.2,-,N/A,,Clear,110,2013-10-16 09:15:00
2:35 AM,48.2,17.6,30,30.16,10.0,ESE,11.5,-,N/A,,Clear,120,2013-10-16 09:35:00
2:55 AM,48.2,17.6,30,30.16,10.0,East,10.4,-,N/A,,Clear,100,2013-10-16 09:55:00
3:15 AM,48.2,17.6,30,30.16,10.0,East,8.1,-,N/A,,Clear,100,2013-10-16 10:15:00
3:35 AM,48.2,17.6,30,30.16,10.0,East,8.1,-,N/A,,Clear,100,2013-10-16 10:35:00
3:55 AM,48.2,17.6,30,30.16,10.0,East,8.1,-,N/A,,Clear,100,2013-10-16 10:55:00
4:15 AM,48.2,17.6,30,30.17,10.0,East,9.2,-,N/A,,Clear,100,2013-10-16 11:15:00
4:35 AM,48.2,17.6,30,30.17,10.0,East,8.1,-,N/A,,Clear,100,2013-10-16 11:35:00
4:55 AM,44.6,19.4,37,30.17,10.0,East,9.2,-,N/A,,Clear,90,2013-10-16 11:55:00
5:15 AM,48.2,17.6,30,30.18,10.0,ESE,6.9,-,N/A,,Clear,110,2013-10-16 12:15:00
5:35 AM,44.6,19.4,37,30.18,10.0,SE,9.2,-,N/A,,Clear,130,2013-10-16 12:35:00
5:55 AM,44.6,19.4,37,30.19,10.0,ESE,10.4,-,N/A,,Clear,120,2013-10-16 12:55:00
6:15 AM,41.0,19.4,42,30.19,10.0,SE,9.2,-,N/A,,Clear,130,2013-10-16 13:15:00
6:35 AM,39.2,21.2,49,30.20,10.0,SE,9.2,-,N/A,,Clear,130,2013-10-16 13:35:00
6:55 AM,39.2,21.2,49,30.20,10.0,SE,10.4,-,N/A,,Clear,130,2013-10-16 13:55:00
7:15 AM,37.4,23.0,56,30.21,10.0,SE,10.4,-,N/A,,Clear,130,2013-10-16 14:15:00
7:35 AM,41.0,19.4,42,30.22,10.0,ESE,10.4,-,N/A,,Clear,120,2013-10-16 14:35:00
7:55 AM,44.6,21.2,39,30.22,10.0,ESE,12.7,-,N/A,,Clear,120,2013-10-16 14:55:00
8:15 AM,48.2,19.4,32,30.22,10.0,ESE,10.4,-,N/A,,Clear,110,2013-10-16 15:15:00
8:35 AM,50.0,21.2,32,30.22,10.0,ESE,11.5,-,N/A,,Clear,110,2013-10-16 15:35:00
8:55 AM,53.6,21.2,28,30.22,10.0,ESE,10.4,-,N/A,,Clear,110,2013-10-16 15:55:00
9:15 AM,55.4,21.2,26,30.23,10.0,ESE,12.7,-,N/A,,Clear,110,2013-10-16 16:15:00
9:35 AM,55.4,21.2,26,30.24,9.0,ESE,11.5,-,N/A,,Clear,110,2013-10-16 16:35:00
9:55 AM,59.0,19.4,22,30.24,9.0,SE,15.0,19.6,N/A,,Clear,130,2013-10-16 16:55:00
10:15 AM,59.0,19.4,22,30.23,10.0,ESE,17.3,-,N/A,,Clear,120,2013-10-16 17:15:00
10:35 AM,59.0,19.4,22,30.23,9.0,ESE,18.4,21.9,N/A,,Clear,110,2013-10-16 17:35:00
10:55 AM,59.0,19.4,22,30.23,9.0,ESE,16.1,19.6,N/A,,Clear,120,2013-10-16 17:55:00
11:15 AM,60.8,19.4,20,30.23,7.0,ESE,15.0,20.7,N/A,,Clear,120,2013-10-16 18:15:00
11:35 AM,60.8,19.4,20,30.22,10.0,SE,16.1,25.3,N/A,,Clear,130,2013-10-16 18:35:00
11:55 AM,62.6,19.4,19,30.22,9.0,ESE,13.8,18.4,N/A,,Clear,120,2013-10-16 18:55:00
12:15 PM,62.6,19.4,19,30.22,10.0,ESE,15.0,21.9,N/A,,Clear,110,2013-10-16 19:15:00
12:35 PM,62.6,19.4,19,30.21,8.0,SE,12.7,19.6,N/A,,Clear,140,2013-10-16 19:35:00
12:55 PM,64.4,19.4,18,30.20,10.0,ESE,10.4,19.6,N/A,,Clear,120,2013-10-16 19:55:00
1:15 PM,64.4,17.6,16,30.20,9.0,East,9.2,19.6,N/A,,Clear,100,2013-10-16 20:15:00
1:35 PM,64.4,17.6,16,30.19,9.0,ESE,10.4,16.1,N/A,,Clear,120,2013-10-16 20:35:00
1:55 PM,66.2,15.8,14,30.18,10.0,SE,6.9,17.3,N/A,,Clear,130,2013-10-16 20:55:00
2:15 PM,64.4,15.8,15,30.17,10.0,SE,8.1,-,N/A,,Clear,140,2013-10-16 21:15:00
2:35 PM,66.2,17.6,15,30.17,10.0,SSE,10.4,17.3,N/A,,Clear,150,2013-10-16 21:35:00
2:55 PM,66.2,15.8,14,30.17,10.0,SE,6.9,-,N/A,,Clear,130,2013-10-16 21:55:00
3:15 PM,66.2,15.8,14,30.16,10.0,SSE,6.9,-,N/A,,Clear,160,2013-10-16 22:15:00
3:35 PM,66.2,15.8,14,30.16,10.0,SSE,8.1,-,N/A,,Clear,150,2013-10-16 22:35:00
3:55 PM,66.2,15.8,14,30.15,10.0,SSE,6.9,-,N/A,,Clear,150,2013-10-16 22:55:00
4:15 PM,66.2,15.8,14,30.15,10.0,Calm,Calm,-,N/A,,Clear,0,2013-10-16 23:15:00
4:35 PM,66.2,15.8,14,30.15,10.0,ESE,4.6,-,N/A,,Clear,120,2013-10-16 23:35:00
4:55 PM,66.2,15.8,14,30.15,10.0,Calm,Calm,-,N/A,,Clear,0,2013-10-16 23:55:00
5:15 PM,66.2,21.2,18,30.14,10.0,NW,10.4,-,N/A,,Clear,310,2013-10-17 00:15:00
5:35 PM,64.4,19.4,18,30.14,10.0,NW,10.4,-,N/A,,Clear,310,2013-10-17 00:35:00
5:55 PM,64.4,21.2,19,30.14,10.0,NW,9.2,-,N/A,,Clear,310,2013-10-17 00:55:00
6:15 PM,60.8,23.0,23,30.15,10.0,NW,8.1,-,N/A,,Clear,310,2013-10-17 01:15:00
6:35 PM,59.0,23.0,25,30.15,10.0,NW,5.8,-,N/A,,Clear,310,2013-10-17 01:35:00
6:55 PM,57.2,23.0,27,30.15,10.0,Calm,Calm,-,N/A,,Clear,0,2013-10-17 01:55:00
7:15 PM,57.2,23.0,27,30.15,10.0,Calm,Calm,-,N/A,,Clear,0,2013-10-17 02:15:00
7:35 PM,55.4,23.0,29,30.15,10.0,West,3.5,-,N/A,,Clear,280,2013-10-17 02:35:00
7:55 PM,53.6,24.8,33,30.16,10.0,Calm,Calm,-,N/A,,Clear,0,2013-10-17 02:55:00
8:15 PM,50.0,24.8,37,30.16,10.0,Calm,Calm,-,N/A,,Clear,0,2013-10-17 03:15:00
8:35 PM,48.2,24.8,40,30.16,10.0,NE,3.5,-,N/A,,Clear,50,2013-10-17 03:35:00
8:55 PM,48.2,24.8,40,30.17,10.0,Calm,Calm,-,N/A,,Clear,0,2013-10-17 03:55:00
9:15 PM,44.6,24.8,46,30.17,10.0,SE,3.5,-,N/A,,Clear,130,2013-10-17 04:15:00
9:35 PM,44.6,26.6,49,30.17,10.0,SE,6.9,-,N/A,,Clear,130,2013-10-17 04:35:00
9:55 PM,44.6,24.8,46,30.17,10.0,ESE,5.8,-,N/A,,Clear,120,2013-10-17 04:55:00
10:15 PM,46.4,24.8,43,30.17,10.0,ESE,4.6,-,N/A,,Clear,110,2013-10-17 05:15:00
10:35 PM,42.8,24.8,49,30.17,10.0,Calm,Calm,-,N/A,,Clear,0,2013-10-17 05:35:00
10:55 PM,44.6,24.8,46,30.17,10.0,SE,4.6,-,N/A,,Clear,130,2013-10-17 05:55:00
11:15 PM,42.8,24.8,49,30.17,10.0,Calm,Calm,-,N/A,,Clear,0,2013-10-17 06:15:00
11:35 PM,41.0,26.6,57,30.17,10.0,Calm,Calm,-,N/A,,Clear,0,2013-10-17 06:35:00
11:55 PM,39.2,24.8,56,30.16,10.0,SE,4.6,-,N/A,,Clear,130,2013-10-17 06:55:00